Date,Time,Wetness (Wet Dry or Ice),Wind Speed (m/s),Temperature (C),Humidity (%),Pressure (mb),Radiation (W/m^2)
2020-10-02,19:40:00,DRY,8.10,11.33,27.7,774.00,1.1
2020-10-02,19:45:00,DRY,9.20,11.15,30.0,774.00,1.9
2020-10-02,19:50:00,DRY,8.40,10.97,30.3,774.00,0.9
2020-10-02,19:55:00,DRY,7.75,10.90,30.0,774.00,1.3
2020-10-02,20:00:00,DRY,8.17,10.63,32.0,774.00,1.3
2020-10-02,20:05:00,DRY,9.85,10.50,33.0,774.50,0.9
2020-10-02,20:10:00,DRY,8.43,10.50,31.3,774.00,1.2
2020-10-02,20:15:00,DRY,8.15,10.80,28.5,774.50,1.2
2020-10-02,20:20:00,DRY,7.87,10.93,28.3,774.33,1.3
2020-10-02,20:25:00,DRY,7.75,10.55,30.5,774.50,0.9
2020-10-02,20:30:00,DRY,8.17,10.53,30.3,775.00,1.1
2020-10-02,20:35:00,DRY,7.50,10.85,28.0,775.00,1.1
2020-10-02,20:40:00,DRY,6.90,10.77,28.7,775.00,1.2
2020-10-02,20:45:00,DRY,6.70,10.70,29.0,775.00,1.5
2020-10-02,20:50:00,DRY,6.57,10.80,28.0,775.00,1.3
2020-10-02,20:55:00,DRY,8.10,10.80,28.0,775.00,1.5
2020-10-02,21:00:00,DRY,8.20,10.83,28.7,775.00,1.8
2020-10-02,21:05:00,DRY,8.00,10.90,29.0,775.00,1.1
2020-10-02,21:10:00,DRY,7.30,10.60,30.0,775.00,1.2
2020-10-02,21:15:00,DRY,6.45,10.25,31.0,775.00,1.1
2020-10-02,21:20:00,DRY,7.17,10.57,28.7,775.00,0.9
2020-10-02,21:25:00,DRY,5.70,10.90,28.5,775.00,1.1
2020-10-02,21:30:00,DRY,6.77,10.97,27.7,775.00,1.0
2020-10-02,21:35:00,DRY,7.00,10.85,29.0,775.00,1.2
2020-10-02,21:40:00,DRY,5.83,10.60,30.0,775.00,1.0
2020-10-02,21:45:00,DRY,7.30,10.00,33.0,775.00,1.1
2020-10-02,21:50:00,DRY,8.30,9.50,47.7,775.00,0.7
2020-10-02,21:55:00,DRY,6.95,10.10,39.0,775.00,0.8
2020-10-02,22:00:00,DRY,8.27,10.80,34.7,775.00,1.0
2020-10-02,22:05:00,DRY,6.90,10.65,37.5,775.00,0.9
2020-10-02,22:10:00,DRY,8.70,10.50,37.0,775.00,1.1
2020-10-02,22:15:00,DRY,8.60,10.75,37.0,775.00,1.1
2020-10-02,22:20:00,DRY,8.50,10.80,34.0,775.00,1.0
2020-10-02,22:25:00,DRY,8.10,10.95,33.0,775.00,0.9
2020-10-02,22:30:00,DRY,7.80,10.93,32.3,775.00,1.2
2020-10-02,22:35:00,DRY,7.35,10.35,39.0,775.00,1.1
2020-10-02,22:40:00,DRY,6.90,9.43,44.3,775.00,0.9
2020-10-02,22:45:00,DRY,7.25,9.65,39.5,775.00,0.8
2020-10-02,22:50:00,DRY,7.23,9.83,38.7,775.00,1.1
2020-10-02,22:55:00,DRY,6.05,9.60,44.5,775.00,1.5
2020-10-02,23:00:00,DRY,8.03,9.23,50.0,774.67,1.5
2020-10-02,23:05:00,DRY,8.05,9.25,45.5,775.00,1.1
2020-10-02,23:10:00,DRY,7.13,8.97,50.7,774.00,1.2
2020-10-02,23:15:00,DRY,8.30,9.30,44.0,774.00,0.8
2020-10-02,23:20:00,DRY,6.53,9.50,41.0,774.33,1.1
2020-10-02,23:25:00,DRY,10.80,9.30,41.0,775.00,1.1
2020-10-02,23:30:00,DRY,8.10,9.67,38.7,775.00,1.1
2020-10-02,23:35:00,DRY,8.35,9.55,42.5,775.00,1.0
2020-10-02,23:40:00,DRY,7.53,9.77,37.7,775.00,1.1
2020-10-02,23:45:00,DRY,5.85,9.55,40.0,775.00,1.1
2020-10-02,23:50:00,DRY,8.47,10.10,31.7,774.67,1.2
2020-10-02,23:55:00,DRY,7.30,10.15,30.0,775.00,1.1
2020-10-03,00:00:00,DRY,8.23,10.53,28.3,774.33,0.9
2020-10-03,00:05:00,DRY,8.70,10.90,28.0,774.00,1.2
2020-10-03,00:10:00,DRY,8.50,11.00,28.3,774.00,1.1
2020-10-03,00:15:00,DRY,7.70,10.80,29.5,774.00,1.2
2020-10-03,00:20:00,DRY,8.73,10.73,30.7,774.00,1.0
2020-10-03,00:25:00,DRY,7.55,10.50,32.0,774.00,0.9
2020-10-03,00:30:00,DRY,6.00,10.33,34.0,774.00,1.0
2020-10-03,00:35:00,DRY,7.75,10.25,33.5,774.00,1.8
2020-10-03,00:40:00,DRY,7.87,10.40,33.7,774.00,1.5
2020-10-03,00:45:00,DRY,8.70,10.30,34.0,774.00,1.2
2020-10-03,00:50:00,DRY,7.47,10.33,37.0,774.00,1.2
2020-10-03,00:55:00,DRY,6.00,10.30,39.5,774.00,2.0
2020-10-03,01:00:00,DRY,7.30,10.47,40.7,774.00,0.9
2020-10-03,01:05:00,DRY,7.25,10.35,42.5,774.00,0.8
2020-10-03,01:10:00,DRY,7.57,10.30,45.0,774.00,0.9
2020-10-03,01:15:00,DRY,7.95,10.20,48.0,774.00,1.4
2020-10-03,01:20:00,DRY,6.70,10.03,48.0,774.00,1.1
2020-10-03,01:25:00,DRY,7.90,10.00,49.5,774.00,1.1
2020-10-03,01:30:00,DRY,8.03,9.97,49.3,774.00,0.9
2020-10-03,01:35:00,DRY,7.20,9.90,47.5,774.00,0.7
2020-10-03,01:40:00,DRY,7.77,9.83,47.7,774.00,1.0
2020-10-03,01:45:00,DRY,7.45,9.65,46.0,774.00,0.9
2020-10-03,01:50:00,DRY,8.83,9.47,44.3,774.00,1.1
2020-10-03,01:55:00,DRY,6.95,9.15,47.5,774.00,1.1
2020-10-03,02:00:00,DRY,7.87,9.00,49.7,773.67,1.2
2020-10-03,02:05:00,DRY,9.75,9.20,49.5,773.50,1.2
2020-10-03,02:10:00,DRY,7.57,9.43,48.0,773.67,1.4
2020-10-03,02:15:00,DRY,7.20,9.55,47.5,774.00,1.1
2020-10-03,02:20:00,DRY,9.07,9.47,46.7,773.00,0.9
2020-10-03,02:25:00,DRY,9.20,9.50,47.0,774.00,1.2
2020-10-03,02:30:00,DRY,9.23,9.60,45.7,773.33,1.2
2020-10-03,02:35:00,DRY,9.10,9.60,44.5,773.50,1.5
2020-10-03,02:40:00,DRY,8.83,9.70,45.3,773.00,1.8
2020-10-03,02:45:00,DRY,7.90,9.80,45.5,773.00,1.4
2020-10-03,02:50:00,DRY,8.77,9.73,48.0,773.00,1.2
2020-10-03,02:55:00,DRY,9.00,9.60,49.0,773.00,1.1
2020-10-03,03:00:00,DRY,8.53,9.50,50.0,773.00,1.3
2020-10-03,03:05:00,DRY,8.85,9.40,49.5,773.00,0.9
2020-10-03,03:10:00,DRY,9.97,9.43,49.0,773.00,1.2
2020-10-03,03:15:00,DRY,8.85,9.40,50.5,773.00,0.9
2020-10-03,03:20:00,DRY,8.70,9.37,50.7,773.00,1.2
2020-10-03,03:25:00,DRY,9.90,9.50,46.5,773.00,0.8
2020-10-03,03:30:00,DRY,9.13,9.60,42.0,773.00,1.1
2020-10-03,03:35:00,DRY,9.35,9.45,41.0,773.00,0.9
2020-10-03,03:40:00,DRY,8.90,9.37,37.0,773.00,1.0
2020-10-03,03:45:00,DRY,7.75,8.95,41.0,773.00,1.1
2020-10-03,03:50:00,DRY,6.70,8.93,39.7,773.00,1.1
2020-10-03,03:55:00,DRY,9.00,9.00,40.0,773.00,1.2
2020-10-03,04:00:00,DRY,9.60,8.77,42.0,773.00,1.2
2020-10-03,04:05:00,DRY,7.70,8.80,42.5,773.00,0.9
2020-10-03,04:10:00,DRY,8.77,8.77,42.3,773.00,1.1
2020-10-03,04:15:00,DRY,9.20,8.95,40.5,773.00,1.1
2020-10-03,04:20:00,DRY,8.37,8.77,41.3,773.00,1.6
2020-10-03,04:25:00,DRY,8.55,9.00,39.0,773.00,1.4
2020-10-03,04:30:00,DRY,9.30,9.00,39.7,773.00,1.4
2020-10-03,04:35:00,DRY,10.35,9.15,39.5,772.50,1.2
2020-10-03,04:40:00,DRY,7.67,8.93,40.7,773.00,1.1
2020-10-03,04:45:00,DRY,7.05,8.75,41.0,773.00,1.1
2020-10-03,04:50:00,DRY,8.57,9.00,40.3,773.00,1.2
2020-10-03,04:55:00,DRY,8.10,9.25,40.0,773.00,1.2
2020-10-03,05:00:00,DRY,8.70,9.13,40.0,773.00,1.7
2020-10-03,05:05:00,DRY,8.10,9.15,39.5,773.00,1.0
2020-10-03,05:10:00,DRY,8.37,9.33,38.3,773.00,1.1
2020-10-03,05:15:00,DRY,8.85,9.20,38.0,773.00,0.6
2020-10-03,05:20:00,DRY,7.90,9.13,38.0,773.00,1.1
2020-10-03,05:25:00,DRY,9.50,9.15,38.0,773.00,1.1
2020-10-03,05:30:00,DRY,8.20,9.17,38.3,773.00,1.2
2020-10-03,05:35:00,DRY,9.95,9.35,37.5,773.00,1.1
2020-10-03,05:40:00,DRY,9.13,9.40,37.3,773.00,1.0
2020-10-03,05:45:00,DRY,9.20,9.40,37.5,772.50,1.5
2020-10-03,05:50:00,DRY,8.53,9.53,37.0,773.00,1.2
2020-10-03,05:55:00,DRY,8.90,9.50,37.0,773.00,1.0
2020-10-03,06:00:00,DRY,8.97,9.40,37.3,773.00,1.1
2020-10-03,06:05:00,DRY,9.00,9.55,37.0,773.00,1.2
2020-10-03,06:10:00,DRY,7.87,9.43,37.7,773.00,1.1
2020-10-03,06:15:00,DRY,8.15,9.45,37.5,773.00,1.6
2020-10-03,06:20:00,DRY,6.77,9.43,38.0,773.00,2.1
2020-10-03,06:25:00,DRY,7.95,9.20,39.5,773.00,1.4
2020-10-03,06:30:00,DRY,6.80,9.13,40.7,773.00,1.6
2020-10-03,06:35:00,DRY,7.30,9.05,41.0,773.00,1.2
2020-10-03,06:40:00,DRY,7.27,8.97,42.0,773.00,1.2
2020-10-03,06:45:00,DRY,9.10,9.15,40.5,773.00,1.7
2020-10-03,06:50:00,DRY,8.40,9.17,39.7,773.00,1.8
2020-10-03,06:55:00,DRY,8.05,9.25,39.5,773.00,3.0
2020-10-03,07:00:00,DRY,6.93,9.17,40.7,773.00,4.5
2020-10-03,07:05:00,DRY,7.95,9.30,40.0,773.00,7.6
2020-10-03,07:10:00,DRY,8.30,9.20,39.7,773.00,9.6
2020-10-03,07:15:00,DRY,6.35,9.30,40.5,773.00,12.3
2020-10-03,07:20:00,DRY,7.83,9.30,41.0,773.00,15.1
2020-10-03,07:25:00,DRY,7.95,9.40,41.5,773.00,17.1
2020-10-03,07:30:00,DRY,7.60,9.40,41.0,773.00,19.3
2020-10-03,07:35:00,DRY,7.85,9.45,41.0,773.00,21.6
2020-10-03,07:40:00,DRY,7.30,9.37,41.7,773.00,23.0
2020-10-03,07:45:00,DRY,9.40,9.45,40.5,773.00,76.3
2020-10-03,07:50:00,DRY,8.43,9.50,40.0,773.00,36.8
2020-10-03,07:55:00,DRY,7.50,9.55,41.0,773.00,28.4
2020-10-03,08:00:00,DRY,8.57,9.40,45.7,773.00,29.3
2020-10-03,08:05:00,DRY,9.55,9.55,49.0,773.00,146.9
2020-10-03,08:10:00,DRY,8.57,9.80,45.3,773.00,284.6
2020-10-03,08:15:00,DRY,9.05,10.00,46.0,773.00,308.1
2020-10-03,08:20:00,DRY,8.60,10.23,46.7,773.00,330.9
2020-10-03,08:25:00,DRY,7.35,10.15,48.0,773.00,354.2
2020-10-03,08:30:00,DRY,9.30,10.43,48.3,773.00,375.7
2020-10-03,08:35:00,DRY,10.10,10.25,55.0,773.00,397.9
2020-10-03,08:40:00,DRY,7.37,10.17,55.0,773.00,418.8
2020-10-03,08:45:00,DRY,7.75,10.25,54.0,773.00,439.9
2020-10-03,08:50:00,DRY,7.23,10.30,55.3,773.00,461.9
2020-10-03,08:55:00,DRY,5.00,10.20,56.5,773.00,482.1
2020-10-03,09:00:00,DRY,8.07,10.07,60.7,773.00,503.8
2020-10-03,09:05:00,DRY,8.65,10.25,59.0,773.00,524.5
2020-10-03,09:10:00,DRY,9.47,10.23,59.0,773.00,544.5
2020-10-03,09:15:00,DRY,9.10,10.15,60.5,773.50,564.7
2020-10-03,09:20:00,DRY,7.37,10.27,61.0,773.67,584.3
2020-10-03,09:25:00,DRY,6.25,10.30,62.0,773.50,604.0
2020-10-03,09:30:00,DRY,8.03,10.70,59.7,773.67,623.0
2020-10-03,09:35:00,DRY,5.50,10.60,64.5,774.00,641.0
2020-10-03,09:40:00,DRY,6.93,10.17,68.7,774.00,658.3
2020-10-03,09:45:00,DRY,7.60,10.30,66.0,774.00,676.4
2020-10-03,09:50:00,DRY,7.13,10.40,62.7,774.00,694.8
2020-10-03,09:55:00,DRY,5.50,10.45,62.0,774.00,712.2
2020-10-03,10:00:00,DRY,7.93,10.47,59.3,774.00,729.4
2020-10-03,10:05:00,DRY,6.15,10.60,57.5,774.00,746.2
2020-10-03,10:10:00,DRY,8.10,10.70,57.7,774.00,762.7
2020-10-03,10:15:00,DRY,5.80,10.85,56.0,774.00,778.5
2020-10-03,10:20:00,DRY,6.93,10.97,56.7,774.00,793.5
2020-10-03,10:25:00,DRY,6.50,10.90,56.0,774.00,808.8
2020-10-03,10:30:00,DRY,6.17,11.13,55.7,774.00,823.5
2020-10-03,10:35:00,DRY,6.90,11.00,61.0,774.00,836.5
2020-10-03,10:40:00,DRY,7.37,11.00,59.0,774.00,850.4
2020-10-03,10:45:00,DRY,6.95,11.00,60.0,774.00,861.5
2020-10-03,10:50:00,DRY,6.53,10.97,64.0,774.00,872.5
2020-10-03,10:55:00,DRY,7.05,10.90,65.5,774.00,883.9
2020-10-03,11:00:00,DRY,6.83,11.17,62.3,774.00,896.1
2020-10-03,11:05:00,DRY,4.70,11.45,60.5,774.00,908.0
2020-10-03,11:10:00,DRY,7.43,11.53,59.3,774.00,918.3
2020-10-03,11:15:00,DRY,7.30,11.45,59.0,774.00,928.2
2020-10-03,11:20:00,DRY,5.47,11.37,61.0,774.00,938.2
2020-10-03,11:25:00,DRY,6.05,11.45,62.0,774.00,947.5
2020-10-03,11:30:00,DRY,5.87,11.60,60.7,774.00,956.2
2020-10-03,11:35:00,DRY,8.85,11.45,60.0,774.00,965.1
2020-10-03,11:40:00,DRY,7.30,11.80,58.3,774.00,973.7
2020-10-03,11:45:00,DRY,6.75,11.90,55.0,774.00,981.6
2020-10-03,11:50:00,DRY,7.00,11.87,53.7,774.00,988.3
2020-10-03,11:55:00,DRY,6.45,11.85,54.0,774.00,994.5
2020-10-03,12:00:00,DRY,7.47,11.87,51.7,774.00,1001.5
2020-10-03,12:05:00,DRY,6.00,11.90,53.0,774.00,1008.1
2020-10-03,12:10:00,DRY,6.13,12.27,51.3,774.00,1012.8
2020-10-03,12:15:00,DRY,6.30,12.30,53.0,774.00,1017.2
2020-10-03,12:20:00,DRY,5.30,12.33,52.0,774.00,1023.1
2020-10-03,12:25:00,DRY,7.65,12.20,54.5,774.00,1026.2
2020-10-03,12:30:00,DRY,6.03,12.27,58.0,774.00,1029.7
2020-10-03,12:35:00,DRY,5.00,12.55,56.0,774.00,1032.2
2020-10-03,12:40:00,DRY,5.60,12.43,53.0,774.00,1034.0
2020-10-03,12:45:00,DRY,6.00,12.35,56.5,774.00,1035.7
2020-10-03,12:50:00,DRY,5.10,12.20,58.3,774.00,1037.8
2020-10-03,12:55:00,DRY,6.70,12.35,51.0,774.00,1038.2
2020-10-03,13:00:00,DRY,5.43,12.47,54.3,774.00,1037.8
2020-10-03,13:05:00,DRY,4.50,12.70,46.5,774.00,1038.0
2020-10-03,13:10:00,DRY,5.63,12.43,55.3,774.00,1035.4
2020-10-03,13:15:00,DRY,7.40,12.90,50.5,774.00,1036.1
2020-10-03,13:20:00,DRY,5.90,12.90,47.7,774.00,1033.7
2020-10-03,13:25:00,DRY,6.15,12.70,44.5,774.00,1030.8
2020-10-03,13:30:00,DRY,3.90,12.80,53.0,774.00,1029.5
2020-10-03,13:35:00,DRY,7.10,12.90,44.0,774.00,1023.8
2020-10-03,13:40:00,DRY,4.10,12.97,49.7,773.33,1020.0
2020-10-03,13:45:00,DRY,4.25,13.00,47.5,773.00,1016.5
2020-10-03,13:50:00,DRY,6.13,12.97,49.7,773.00,1011.9
2020-10-03,13:55:00,DRY,3.50,12.95,50.5,773.00,1005.2
2020-10-03,14:00:00,DRY,5.47,13.10,55.3,773.67,999.8
2020-10-03,14:05:00,DRY,5.95,13.20,51.0,773.50,992.8
2020-10-03,14:10:00,DRY,5.53,13.00,52.7,773.00,985.8
2020-10-03,14:15:00,DRY,6.40,13.00,53.0,773.50,977.8
2020-10-03,14:20:00,DRY,5.53,12.90,52.7,773.00,970.0
2020-10-03,14:25:00,DRY,3.85,13.15,54.0,773.00,963.2
2020-10-03,14:30:00,DRY,5.20,13.03,54.0,773.00,952.8
2020-10-03,14:35:00,DRY,5.90,13.15,50.5,773.00,943.4
2020-10-03,14:40:00,DRY,5.17,13.03,50.7,773.00,933.7
2020-10-03,14:45:00,DRY,4.60,13.10,56.5,773.50,921.2
2020-10-03,14:50:00,DRY,4.00,13.03,52.0,773.33,909.7
2020-10-03,14:55:00,DRY,4.00,12.40,57.5,773.00,898.2
2020-10-03,15:00:00,DRY,4.23,12.47,53.0,773.00,885.7
2020-10-03,15:05:00,DRY,4.65,12.30,58.0,773.00,874.3
2020-10-03,15:10:00,DRY,7.27,12.23,55.3,773.00,859.9
2020-10-03,15:15:00,DRY,2.75,11.90,61.5,773.00,847.4
2020-10-03,15:20:00,DRY,4.37,12.43,56.3,773.00,832.1
2020-10-03,15:25:00,DRY,5.60,12.70,53.0,773.00,817.6
2020-10-03,15:30:00,DRY,5.13,12.40,55.0,773.00,802.8
2020-10-03,15:35:00,DRY,4.80,12.25,53.0,773.00,788.2
2020-10-03,15:40:00,DRY,6.83,12.50,50.7,773.00,771.4
2020-10-03,15:45:00,DRY,5.45,12.55,49.0,773.00,755.3
2020-10-03,15:50:00,DRY,5.77,12.67,51.0,773.00,738.9
2020-10-03,15:55:00,DRY,5.00,12.75,49.5,773.00,722.2
2020-10-03,16:00:00,DRY,4.97,12.90,45.7,773.00,704.2
2020-10-03,16:05:00,DRY,3.80,12.70,45.0,773.00,685.9
2020-10-03,16:10:00,DRY,5.50,12.90,47.0,773.00,670.6
2020-10-03,16:15:00,DRY,4.85,12.85,45.5,773.00,649.9
2020-10-03,16:20:00,DRY,4.70,13.00,46.0,773.00,629.3
2020-10-03,16:25:00,DRY,4.60,12.95,45.5,773.00,610.2
2020-10-03,16:30:00,DRY,6.17,12.73,49.0,773.00,590.7
2020-10-03,16:35:00,DRY,4.35,12.65,47.5,773.00,571.8
2020-10-03,16:40:00,DRY,4.60,12.53,47.7,773.00,551.5
2020-10-03,16:45:00,DRY,5.95,12.65,46.0,773.50,531.2
2020-10-03,16:50:00,DRY,4.67,12.63,45.0,773.00,510.6
2020-10-03,16:55:00,DRY,5.60,12.55,46.0,773.00,489.7
2020-10-03,17:00:00,DRY,4.93,12.43,45.0,773.67,468.4
2020-10-03,17:05:00,DRY,5.20,12.55,43.5,773.50,446.9
2020-10-03,17:10:00,DRY,5.53,12.50,44.3,773.00,424.4
2020-10-03,17:15:00,DRY,4.65,12.50,43.5,774.00,403.1
2020-10-03,17:20:00,DRY,4.33,12.47,43.0,773.33,380.5
2020-10-03,17:25:00,DRY,3.20,12.55,43.0,774.00,359.2
2020-10-03,17:30:00,DRY,4.80,12.50,41.7,774.00,337.1
2020-10-03,17:35:00,DRY,3.40,12.50,41.5,774.00,314.6
2020-10-03,17:40:00,DRY,3.37,12.33,42.0,774.00,290.8
2020-10-03,17:45:00,DRY,4.70,12.30,42.0,774.00,268.1
2020-10-03,17:50:00,DRY,4.93,12.23,40.0,773.67,246.6
2020-10-03,17:55:00,DRY,4.10,12.35,40.5,774.00,224.9
2020-10-03,18:00:00,DRY,3.70,12.40,40.3,773.33,203.7
2020-10-03,18:05:00,DRY,4.50,12.35,41.0,773.50,183.5
2020-10-03,18:10:00,DRY,5.57,12.30,40.3,773.33,163.0
2020-10-03,18:15:00,DRY,5.30,12.10,40.0,774.00,71.2
2020-10-03,18:20:00,DRY,4.37,11.90,42.3,773.33,25.3
2020-10-03,18:25:00,DRY,4.05,11.80,43.0,774.00,22.6
2020-10-03,18:30:00,DRY,4.37,11.80,43.0,774.00,20.8
2020-10-03,18:35:00,DRY,3.75,11.80,43.0,774.00,18.7
2020-10-03,18:40:00,DRY,5.73,11.97,43.3,774.00,16.3
2020-10-03,18:45:00,DRY,5.20,11.95,45.5,774.00,13.2
2020-10-03,18:50:00,DRY,5.43,11.83,47.0,774.00,10.3
2020-10-03,18:55:00,DRY,5.40,11.80,48.5,774.00,8.9
2020-10-03,19:00:00,DRY,5.67,11.70,49.7,774.00,5.0
2020-10-03,19:05:00,DRY,5.05,11.65,52.5,774.00,3.6
2020-10-03,19:10:00,DRY,5.23,11.67,52.7,774.00,2.7
2020-10-03,19:15:00,DRY,6.30,11.60,52.5,774.00,1.4
2020-10-03,19:20:00,DRY,6.03,11.63,55.0,774.00,1.3
2020-10-03,19:25:00,DRY,4.50,11.60,56.5,774.00,1.1
2020-10-03,19:30:00,DRY,5.83,11.63,60.0,774.00,1.2
2020-10-03,19:35:00,DRY,6.60,11.70,61.0,774.00,1.2
2020-10-03,19:40:00,DRY,7.10,11.73,61.7,774.00,2.1
2020-10-03,19:45:00,DRY,6.75,11.85,62.5,774.00,1.2
2020-10-03,19:50:00,DRY,5.83,11.83,62.0,774.00,2.3
2020-10-03,19:55:00,DRY,6.05,11.85,63.0,774.00,1.5
2020-10-03,20:00:00,DRY,6.27,11.73,62.3,774.00,1.0
2020-10-03,20:05:00,DRY,7.55,11.65,63.5,774.00,0.7
2020-10-03,20:10:00,DRY,7.33,11.67,63.3,774.00,1.3
2020-10-03,20:15:00,DRY,5.90,11.60,64.0,774.00,1.2
2020-10-03,20:20:00,DRY,7.70,11.47,64.7,774.00,1.3
2020-10-03,20:25:00,DRY,5.65,11.55,65.0,774.00,1.4
2020-10-03,20:30:00,DRY,6.40,11.77,64.3,774.00,1.4
2020-10-03,20:35:00,DRY,7.45,11.90,64.0,774.00,1.2
2020-10-03,20:40:00,DRY,5.27,11.90,63.3,774.00,1.1
2020-10-03,20:45:00,DRY,6.30,11.90,64.5,774.00,1.1
2020-10-03,20:50:00,DRY,6.73,11.93,65.7,774.00,1.3
2020-10-03,20:55:00,DRY,8.90,11.90,64.0,774.00,1.1
2020-10-03,21:00:00,DRY,5.70,11.93,64.0,774.00,1.3
2020-10-03,21:05:00,DRY,6.30,11.80,65.0,774.00,1.7
2020-10-03,21:10:00,DRY,7.43,11.67,64.7,774.00,1.5
2020-10-03,21:15:00,DRY,7.40,11.65,64.5,774.00,2.2
2020-10-03,21:20:00,DRY,7.70,11.73,64.0,774.00,1.2
2020-10-03,21:25:00,DRY,5.00,11.80,65.0,774.00,1.2
2020-10-03,21:30:00,DRY,5.67,11.80,64.3,774.00,1.4
2020-10-03,21:35:00,DRY,6.15,11.80,65.0,774.00,1.1
2020-10-03,21:40:00,DRY,6.40,11.83,65.0,774.00,1.2
2020-10-03,21:45:00,DRY,6.40,11.80,65.5,774.00,1.5
2020-10-03,21:50:00,DRY,7.93,11.93,66.0,774.00,1.1
2020-10-03,21:55:00,DRY,7.05,11.90,66.0,774.00,1.2
2020-10-03,22:00:00,DRY,7.43,11.93,66.0,774.00,1.3
2020-10-03,22:05:00,DRY,8.25,11.80,65.5,774.00,1.4
2020-10-03,22:10:00,DRY,7.00,11.73,67.0,774.00,1.2
2020-10-03,22:15:00,DRY,6.85,11.75,67.0,774.00,1.1
2020-10-03,22:20:00,DRY,6.83,11.80,67.0,774.00,1.1
2020-10-03,22:25:00,DRY,8.20,11.75,67.0,774.00,0.9
2020-10-03,22:30:00,DRY,7.37,11.67,67.3,774.00,1.3
2020-10-03,22:35:00,DRY,6.05,11.70,67.0,774.00,1.1
2020-10-03,22:40:00,DRY,7.73,11.77,67.0,774.00,1.1
2020-10-03,22:45:00,DRY,7.95,11.75,67.5,774.00,0.9
2020-10-03,22:50:00,DRY,7.70,11.70,67.0,774.00,1.8
2020-10-03,22:55:00,DRY,6.65,11.55,67.5,774.00,1.2
2020-10-03,23:00:00,DRY,6.23,11.50,68.7,774.00,1.1
2020-10-03,23:05:00,DRY,6.40,11.60,68.0,774.00,1.1
2020-10-03,23:10:00,DRY,6.03,11.53,68.3,774.00,1.1
2020-10-03,23:15:00,DRY,7.70,11.50,67.0,774.00,3.5
2020-10-03,23:20:00,DRY,5.90,11.43,68.0,774.00,1.4
2020-10-03,23:25:00,DRY,6.15,11.40,69.0,774.00,1.3
2020-10-03,23:30:00,DRY,6.27,11.37,68.7,774.00,1.1
2020-10-03,23:35:00,DRY,7.20,11.05,70.5,774.00,1.3
2020-10-03,23:40:00,DRY,6.07,10.63,73.7,774.00,1.4
2020-10-03,23:45:00,DRY,6.60,10.60,74.0,774.00,0.6
2020-10-03,23:50:00,DRY,6.67,10.77,73.7,774.00,1.3
2020-10-03,23:55:00,DRY,6.30,10.70,73.5,774.00,1.1
2020-10-04,00:00:00,DRY,7.00,10.57,73.7,774.00,1.1
2020-10-04,00:05:00,DRY,5.05,10.55,74.5,774.00,1.1
2020-10-04,00:10:00,DRY,6.17,10.70,73.0,774.00,1.2
2020-10-04,00:15:00,DRY,5.95,10.85,71.5,774.00,1.1
2020-10-04,00:20:00,DRY,6.10,10.80,72.0,774.00,1.1
2020-10-04,00:25:00,DRY,5.15,10.95,71.0,774.00,1.4
2020-10-04,00:30:00,DRY,5.90,11.05,70.0,774.00,1.2
2020-10-04,00:35:00,DRY,5.90,10.80,70.0,774.00,1.1
2020-10-04,00:40:00,DRY,5.97,10.87,70.3,774.00,1.5
2020-10-04,00:45:00,DRY,7.40,11.10,69.0,774.00,1.4
2020-10-04,00:50:00,DRY,7.27,11.33,68.7,774.00,1.9
2020-10-04,00:55:00,DRY,5.95,11.20,70.0,774.00,2.0
2020-10-04,01:00:00,DRY,6.17,11.00,70.7,774.00,1.4
2020-10-04,01:05:00,DRY,7.30,10.80,70.5,774.00,1.2
2020-10-04,01:10:00,DRY,6.93,10.77,71.3,774.00,1.1
2020-10-04,01:15:00,DRY,7.25,10.70,71.5,774.00,0.7
2020-10-04,01:20:00,DRY,5.50,10.63,71.0,774.00,1.1
2020-10-04,01:25:00,DRY,6.40,10.65,71.0,774.00,0.9
2020-10-04,01:30:00,DRY,7.20,10.63,71.7,774.00,1.2
2020-10-04,01:35:00,DRY,6.85,10.50,73.5,774.00,1.2
2020-10-04,01:40:00,DRY,6.53,10.63,69.3,774.00,1.0
2020-10-04,01:45:00,DRY,6.00,10.60,69.5,773.50,1.1
2020-10-04,01:50:00,DRY,7.93,10.87,66.3,773.00,1.1
2020-10-04,01:55:00,DRY,7.50,10.90,69.5,773.00,1.1
2020-10-04,02:00:00,DRY,7.67,11.00,67.7,773.00,1.2
2020-10-04,02:05:00,DRY,8.50,11.10,65.0,773.00,1.5
2020-10-04,02:10:00,DRY,6.67,11.03,61.7,773.00,1.2
2020-10-04,02:15:00,DRY,7.30,10.90,62.5,773.00,0.9
2020-10-04,02:20:00,DRY,7.27,11.20,62.0,773.00,1.1
2020-10-04,02:25:00,DRY,7.00,11.20,65.0,773.00,1.2
2020-10-04,02:30:00,DRY,7.30,11.27,62.3,773.33,1.4
2020-10-04,02:35:00,DRY,6.20,11.20,61.5,773.00,1.5
2020-10-04,02:40:00,DRY,7.60,11.30,59.0,773.33,1.3
2020-10-04,02:45:00,DRY,7.35,11.25,57.0,773.00,0.9
2020-10-04,02:50:00,DRY,5.33,11.20,55.3,773.00,1.1
2020-10-04,02:55:00,DRY,7.50,11.15,57.5,773.50,1.2
2020-10-04,03:00:00,DRY,5.60,11.03,55.0,773.00,0.9
2020-10-04,03:05:00,DRY,6.35,10.95,55.5,773.00,1.1
2020-10-04,03:10:00,DRY,4.60,10.77,58.0,773.00,0.9
2020-10-04,03:15:00,DRY,5.30,10.40,62.0,773.00,1.1
2020-10-04,03:20:00,DRY,6.90,10.33,60.3,773.00,1.1
2020-10-04,03:25:00,DRY,7.60,10.15,65.5,773.00,0.8
2020-10-04,03:30:00,DRY,6.83,10.17,70.0,773.00,0.8
2020-10-04,03:35:00,DRY,6.15,10.05,69.5,773.00,1.1
2020-10-04,03:40:00,DRY,7.57,10.23,67.3,773.00,1.0
2020-10-04,03:45:00,DRY,7.30,10.45,66.0,773.00,1.1
2020-10-04,03:50:00,DRY,7.60,10.30,67.7,773.00,1.1
2020-10-04,03:55:00,DRY,8.75,10.65,60.5,773.00,0.9
2020-10-04,04:00:00,DRY,7.93,10.63,63.0,773.00,1.2
2020-10-04,04:05:00,DRY,9.00,10.50,66.5,773.00,0.9
2020-10-04,04:10:00,DRY,7.53,10.60,66.0,773.00,0.9
2020-10-04,04:15:00,DRY,6.25,10.25,71.0,773.00,0.8
2020-10-04,04:20:00,DRY,7.90,10.20,69.7,773.00,1.2
2020-10-04,04:25:00,DRY,6.30,10.05,75.5,773.00,0.8
2020-10-04,04:30:00,DRY,6.65,10.00,70.5,773.00,1.3
2020-10-04,04:35:00,DRY,8.30,10.40,67.0,773.00,1.1
2020-10-04,04:40:00,DRY,7.97,10.37,66.3,773.00,0.9
2020-10-04,04:45:00,DRY,7.15,10.25,69.0,773.00,1.2
2020-10-04,04:50:00,DRY,6.27,10.37,67.0,773.00,1.0
2020-10-04,04:55:00,DRY,7.65,10.50,64.5,773.00,0.9
2020-10-04,05:00:00,DRY,7.00,11.03,59.3,773.00,1.0
2020-10-04,05:05:00,DRY,7.60,10.90,59.5,773.00,0.8
2020-10-04,05:10:00,DRY,5.60,11.30,54.3,773.00,1.0
2020-10-04,05:15:00,DRY,7.35,11.50,50.5,773.00,1.3
2020-10-04,05:20:00,DRY,8.13,11.43,52.7,773.00,1.2
2020-10-04,05:25:00,DRY,6.90,11.55,53.0,773.00,1.4
2020-10-04,05:30:00,DRY,6.87,11.37,52.7,773.00,1.2
2020-10-04,05:35:00,DRY,5.50,11.40,52.5,773.00,1.1
2020-10-04,05:40:00,DRY,6.63,11.57,51.7,773.00,1.2
2020-10-04,05:45:00,DRY,6.80,11.30,59.0,773.00,1.2
2020-10-04,05:50:00,DRY,6.53,11.27,55.7,773.00,0.8
2020-10-04,05:55:00,DRY,7.40,11.60,49.5,773.00,1.1
2020-10-04,06:00:00,DRY,7.87,11.80,47.3,773.00,1.1
2020-10-04,06:05:00,DRY,6.70,11.30,56.5,773.00,0.9
2020-10-04,06:10:00,DRY,8.50,11.10,57.3,773.00,2.0
2020-10-04,06:15:00,DRY,8.50,11.05,58.0,773.00,1.6
2020-10-04,06:20:00,DRY,7.03,11.10,57.0,773.00,1.3
2020-10-04,06:25:00,DRY,8.60,10.95,55.5,773.00,0.9
2020-10-04,06:30:00,DRY,7.43,11.03,59.3,773.00,0.9
2020-10-04,06:35:00,DRY,7.25,11.45,57.5,773.50,0.8
2020-10-04,06:40:00,DRY,8.07,11.40,59.7,774.00,1.2
2020-10-04,06:45:00,DRY,6.70,11.05,62.0,774.00,1.5
2020-10-04,06:50:00,DRY,8.03,10.90,62.7,774.00,1.4
2020-10-04,06:55:00,DRY,6.60,11.00,63.0,774.00,2.6
2020-10-04,07:00:00,DRY,7.27,11.07,63.0,774.00,4.1
2020-10-04,07:05:00,DRY,7.00,11.20,61.5,774.00,6.5
2020-10-04,07:10:00,DRY,5.57,11.13,61.0,774.00,8.9
2020-10-04,07:15:00,DRY,8.10,11.05,61.0,774.00,12.7
2020-10-04,07:20:00,DRY,5.93,11.20,60.7,774.00,15.2
2020-10-04,07:25:00,DRY,5.50,11.20,60.0,774.00,17.9
2020-10-04,07:30:00,DRY,5.47,11.00,60.3,774.00,19.7
2020-10-04,07:35:00,DRY,5.70,10.50,64.5,774.00,21.5
2020-10-04,07:40:00,DRY,6.57,10.50,64.3,774.00,23.5
2020-10-04,07:45:00,DRY,5.60,10.75,63.5,774.00,25.0
2020-10-04,07:50:00,DRY,5.80,10.67,64.0,774.00,26.7
2020-10-04,07:55:00,DRY,7.65,10.60,64.5,774.00,28.6
2020-10-04,08:00:00,DRY,5.40,10.43,64.3,774.00,30.0
2020-10-04,08:05:00,DRY,7.55,10.50,63.5,774.00,39.4
2020-10-04,08:10:00,DRY,7.93,10.63,63.3,774.00,261.1
2020-10-04,08:15:00,DRY,6.40,10.85,62.0,774.00,299.0
2020-10-04,08:20:00,DRY,6.10,10.90,60.7,774.00,322.2
2020-10-04,08:25:00,DRY,6.85,11.00,60.0,774.00,344.5
2020-10-04,08:30:00,DRY,5.40,11.33,59.3,774.00,367.9
2020-10-04,08:35:00,DRY,5.45,11.25,58.5,774.00,390.4
2020-10-04,08:40:00,DRY,4.65,11.20,61.5,774.50,416.6
2020-10-04,08:45:00,DRY,6.80,11.00,61.5,774.50,434.1
2020-10-04,08:50:00,DRY,6.30,11.03,62.3,774.00,455.7
2020-10-04,08:55:00,DRY,6.45,10.65,67.0,774.50,476.2
2020-10-04,09:00:00,DRY,5.97,10.57,69.0,774.33,497.1
2020-10-04,09:05:00,DRY,4.65,10.60,69.5,775.00,518.8
2020-10-04,09:10:00,DRY,6.70,10.93,68.0,775.00,539.0
2020-10-04,09:15:00,DRY,4.95,10.85,70.0,775.00,559.4
2020-10-04,09:20:00,DRY,5.00,10.80,73.0,775.00,579.1
2020-10-04,09:25:00,DRY,3.50,10.55,73.0,775.00,599.2
2020-10-04,09:30:00,DRY,4.63,10.67,72.3,775.00,619.5
2020-10-04,09:35:00,DRY,5.10,10.70,71.5,775.00,639.1
2020-10-04,09:40:00,DRY,4.10,10.90,70.0,775.00,657.3
2020-10-04,09:45:00,DRY,6.10,10.75,70.5,775.00,674.5
2020-10-04,09:50:00,DRY,4.87,11.03,70.0,775.00,693.0
2020-10-04,09:55:00,DRY,4.20,10.95,70.5,775.00,710.9
2020-10-04,10:00:00,DRY,4.30,11.10,70.0,775.00,727.7
2020-10-04,10:05:00,DRY,3.95,11.05,71.5,775.00,744.9
2020-10-04,10:10:00,DRY,4.97,11.37,70.7,775.00,760.1